Regional Weather Roundup
Issued by NWS Raleigh/Durham, NC

Home | Current Version | Previous Version | Text Only | Print | Product List | Glossary On
Versions: 1 2 3 4 5 6 7 8 9 10 11 12 13 14 15 16 17 18 19 20 21 22 23 24 25 26 27
000
ASUS42 KRAH 301410
RWRRAH
NORTH CAROLINA WEATHER ROUNDUP
NATIONAL WEATHER SERVICE RALEIGH NC
1000 AM EDT TUE AUG 30 2016

NOTE: "FAIR" INDICATES FEW OR NO CLOUDS BELOW 12,000 FEET WITH NO
SIGNIFICANT WEATHER AND/OR OBSTRUCTIONS TO VISIBILITY.

NCZ001-053-055-056-065-067-301500-
WESTERN NORTH CAROLINA

CITY           SKY/WX    TMP DP  RH WIND       PRES   REMARKS
ASHEVILLE      SUNNY     74  64  71 CALM      30.23S
JEFFERSON      SUNNY     69  64  85 CALM      30.29S
MORGANTON      SUNNY     77  67  72 CALM      30.23R
HICKORY        SUNNY     78  68  71 NE5       30.17S
RUTHERFORDTON    N/A     80  69  69 N3        30.17F
MOUNT AIRY     SUNNY     82  72  70 E6        30.20S
BOONE          SUNNY     71  63  75 CALM      30.28F
$$

NCZ021-022-025-041-071-084-088-301500-
CENTRAL NORTH CAROLINA

CITY           SKY/WX    TMP DP  RH WIND       PRES   REMARKS
CHARLOTTE      MOSUNNY   82  67  60 NE6       30.14S
GREENSBORO     MOSUNNY   80  66  62 NE6       30.15S
WINSTON-SALEM  MOSUNNY   80  64  58 N6        30.18R
RALEIGH-DURHAM MOSUNNY   81  65  58 N8        30.13R
FORT BRAGG     SUNNY     83  66  57 NE7       30.10R
FAYETTEVILLE   SUNNY     83  65  54 NE10      30.10R
BURLINGTON     SUNNY     81  64  56 NE5       30.14S
LAURINBURG     SUNNY     84  68  58 NE12      30.11R
$$

NCZ011-015-027-028-043-044-047-080-103-301500-
NORTHEASTERN NORTH CAROLINA

CITY           SKY/WX    TMP DP  RH WIND       PRES   REMARKS
ROCKY MT-WILSO MOSUNNY   81  67  62 NE8       30.12R
GREENVILLE     MOSUNNY   81  68  65 NE10      30.11S
WASHINGTON     MOSUNNY   77  72  85 NE10      30.09S
ELIZABETH CITY PTSUNNY   82  73  74 NE17      30.09R
MANTEO         CLOUDY    81  76  86 E14       30.08R
CAPE HATTERAS  CLOUDY    79  77  94 NE6       30.04R
$$

NCZ078-087-090-091-093-098-101-301500-
SOUTHEASTERN NORTH CAROLINA

CITY           SKY/WX    TMP DP  RH WIND       PRES   REMARKS
LUMBERTON      MOSUNNY   80  69  69 N8        30.09R
GOLDSBORO      SUNNY     79  69  72 NE12      30.08S
KINSTON        SUNNY     79  68  69 N8        30.10S
KENANSVILLE    MOSUNNY   79  72  78 NE7       30.10R
NEW BERN       MOSUNNY   77  73  87 N9        30.08R
CHERRY POINT   CLOUDY    80  74  81 N12       30.07S
BEAUFORT       LGT RAIN  80  78  94 N10       30.04S
JACKSONVILLE   MOSUNNY   79  72  79 N9        30.08R
WILMINGTON     CLOUDY    76  72  87 N5        30.08R
$$





USA.gov is the U.S. government's official web portal to all federal, state and local government web resources and services.